Regional Weather Roundup
Issued by NWS

Home | Current Version | Previous Version | Text Only | Print | Product List | Glossary On
Versions: 1 2 3 4 5 6 7 8 9 10 11 12 13 14 15 16 17 18 19 20 21 22 23 24 25 26 27 28 29 30 31 32 33 34 35 36 37 38 39 40 41 42 43 44 45 46 47 48 49 50
000
ASUS45 KSLC 231610
RWRUT

UTAH REGIONAL WEATHER ROUNDUP
NATIONAL WEATHER SERVICE SALT LAKE CITY UT
1000 AM MDT SAT AUG 23 2014

UTZ001>011-023>025-231700-

NORTHERN UTAH

CITY           SKY/WX    TMP DP  RH WIND       PRES   REMARKS
HILL AFB       PTSUNNY   59  48  67 S9        30.07S
LOGAN          PTSUNNY   54  52  93 SW5       30.06S
OGDEN          MOSUNNY   60  49  66 VRB3      30.06R
PROVO AIRPORT  MOSUNNY   57  48  72 S6        30.11R
SALT LAKE CITY MOSUNNY   60  49  66 S9        30.06R
VERNAL         RAIN      50  47  89 E16       30.04F FOG
WENDOVER       SUNNY     61  46  59 SE5       30.08S
HEBER CITY     SUNNY     54  41  62 CALM      30.12S
WEST JORDAN    SUNNY     61  54  77 SE13      30.08R

$$

UTZ012>022-026-027-231700-

SOUTHERN UTAH

CITY           SKY/WX    TMP DP  RH WIND       PRES   REMARKS
BRYCE CANYON   PTSUNNY   58  46  64 SW13      30.21R
CEDAR CITY     MOSUNNY   66  50  56 SW9       30.10R
MILFORD        MOSUNNY   63  55  75 N3        30.08S
MOAB/CYNLANDS  CLOUDY   N/A N/A N/A E5        30.06R
PRICE          PTSUNNY   52  43  71 E3        30.14R
ST GEORGE      SUNNY     77  54  44 CALM      29.99S
KANAB            N/A     68  52  56 S5        30.14S

$$

REGIONAL REPORTS     COLORADO/ARIZONA

CITY           SKY/WX    TMP DP  RH WIND       PRES   REMARKS
CRAIG, CO      LGT RAIN  53  48  83 W5        30.12R
GRAND JUNCTION HVY RAIN  55  55 100 NW6       30.08R FOG
RIFLE          RAIN      53  50  89 CALM      30.12S FOG
MONTROSE       CLOUDY    60  54  80 CALM      30.12R
CORTEZ         CLOUDY    64  52  64 SW5       30.16S
PAGE, AZ       MOSUNNY   75  49  39 NE6       30.05S
GRAND CANYON   SUNNY     59  48  67 SW12      30.24R
KINGMAN        SUNNY     75  50  41 SW3       30.03S
FLAGSTAFF      CLOUDY    59  49  69 SW10      30.26R

$$

REGIONAL REPORTS    NEVADA/IDAHO/WYOMING

CITY           SKY/WX    TMP DP  RH WIND       PRES   REMARKS
LAS VEGAS, NV  SUNNY     83  43  24 S16       29.88R
ELY            SUNNY     58  47  66 CALM      30.15R
ELKO           SUNNY     60  37  42 VRB5      30.13R
POCATELLO, ID  MOSUNNY   56  48  74 SW17      30.08R
BURLEY         MOSUNNY   57  47  69 W9G21     30.07R
EVANSTON, WY   MOSUNNY   48  43  82 SW13      30.13S
ROCK SPRINGS   PTSUNNY   49  45  86 SW18G26   30.09F

$$


USA.gov is the U.S. government's official web portal to all federal, state and local government web resources and services.